This is the latest recevied weather packets stored in our database for station/object IR1CH-3. If no packets are shown the sender has not sent any weather packets the latest 10 day(s).
| Time | Temp. | Humidity | Pressure | Rain* | Wind** | Luminosity | Snow |
|---|---|---|---|---|---|---|---|
| 1777986674 | 15° C | 99% | 1013.1 hPa | - | - | - | - |
| 1777984873 | 15° C | 99% | 1013 hPa | - | - | - | - |
| 1777983073 | 15° C | 99% | 1013.1 hPa | - | - | - | - |
| 1777981273 | 14.44° C | 99% | 1013.1 hPa | - | - | - | - |
| 1777979472 | 15° C | 99% | 1013.2 hPa | - | - | - | - |
| 1777977672 | 15.56° C | 99% | 1013.2 hPa | - | - | - | - |
| 1777975872 | 15.56° C | 99% | 1013.1 hPa | - | - | - | - |
| 1777974071 | 16.11° C | 95% | 1012.7 hPa | - | - | - | - |
| 1777972271 | 16.67° C | 94% | 1012.5 hPa | - | - | - | - |
| 1777970471 | 16.67° C | 98% | 1012.5 hPa | - | - | - | - |
| 1777968670 | 15° C | 99% | 1012.4 hPa | - | - | - | - |
| 1777966870 | 16.67° C | 99% | 1012 hPa | - | - | - | - |
| 1777965070 | 16.67° C | 99% | 1012.1 hPa | - | - | - | - |
| 1777963269 | 16.67° C | 99% | 1012.1 hPa | - | - | - | - |
| 1777961469 | 15° C | 99% | 1012.7 hPa | - | - | - | - |
| 1777959669 | 14.44° C | 99% | 1012.2 hPa | - | - | - | - |
| 1777957868 | 13.33° C | 99% | 1012.4 hPa | - | - | - | - |
| 1777956068 | 12.78° C | 99% | 1012.2 hPa | - | - | - | - |
| 1777954268 | 12.22° C | 99% | 1012.5 hPa | - | - | - | - |
| 1777952467 | 13.33° C | 99% | 1014.2 hPa | - | - | - | - |
| 1777950667 | 12.22° C | 99% | 1014.5 hPa | - | - | - | - |
| 1777948867 | 14.44° C | 99% | 1013.6 hPa | - | - | - | - |
| 1777947066 | 13.89° C | 99% | 1014.3 hPa | - | - | - | - |
| 1777945266 | 13.89° C | 99% | 1014.7 hPa | - | - | - | - |
| 1777943466 | 15.56° C | 99% | 1015.5 hPa | - | - | - | - |
* Rain since midnight (hover to see other rain measurements)
** Current wind speed in m/s (hover to see current wind gust speed)